Location: Bismarck
(46.7731°N, 100.8200°W)
Time: 08:00:33
(UTC-05:00)

Landsat 7 - Visible Passes

Search period start: 28 August 2015 00:00
Search period end: 07 September 2015 00:00
Orbit: 702 x 703 km, 98.2° (Epoch: 28 August)

Date Brightness Start Highest point End Pass type
(mag) Time Alt. Az. Time Alt. Az. Time Alt. Az.
28 Aug 6.4 00:58:02 11° W 00:58:02 11° W 00:59:23 10° WNW visible
28 Aug 4.9 22:23:37 27° E 22:24:35 29° ENE 22:28:42 10° N visible
29 Aug 5.0 00:02:31 36° W 00:02:31 36° W 00:06:40 10° NNW visible
29 Aug 6.0 21:29:29 10° ENE 21:30:11 10° NE 21:31:07 10° NE visible
29 Aug 3.7 23:07:00 68° E 23:07:09 69° ENE 23:11:55 10° N visible
30 Aug 6.2 00:45:53 15° W 00:45:53 15° W 00:48:10 10° NW visible
30 Aug 5.2 22:11:29 21° E 22:12:27 23° ENE 22:16:13 10° NNE visible
30 Aug 4.6 23:50:22 46° W 23:50:22 46° W 23:54:35 10° NNW visible
31 Aug 4.0 22:54:51 53° ENE 22:54:57 53° ENE 22:59:37 10° N visible
01 Sep 6.0 00:33:45 19° W 00:33:45 19° W 00:36:29 10° NW visible
01 Sep 5.4 21:59:20 17° ENE 22:00:21 19° ENE 22:03:40 10° NNE visible
01 Sep 4.3 23:38:13 58° WNW 23:38:13 58° WNW 23:42:26 10° NNW visible
02 Sep 4.4 22:42:43 41° ENE 22:42:47 41° ENE 22:47:16 10° N visible
03 Sep 5.7 00:21:37 24° WNW 00:21:37 24° WNW 00:24:38 10° NW visible
03 Sep 5.7 21:47:12 14° ENE 21:48:15 15° ENE 21:50:58 10° NNE visible
03 Sep 4.1 23:26:05 66° NNW 23:26:05 66° NNW 23:30:15 10° NNW visible
04 Sep 4.7 22:30:34 32° ENE 22:30:38 32° ENE 22:34:53 10° N visible
05 Sep 5.5 00:09:28 29° WNW 00:09:28 29° WNW 00:12:39 10° NNW visible
05 Sep 5.9 21:35:03 11° ENE 21:36:11 12° ENE 21:37:58 10° NE visible
05 Sep 4.1 23:13:57 62° N 23:13:57 62° N 23:18:00 10° N visible
06 Sep 6.5 00:52:50 12° WNW 00:52:50 12° WNW 00:53:50 10° WNW visible
06 Sep 5.0 22:18:27 26° ENE 22:18:29 26° ENE 22:22:27 10° N visible
